TimePDT,TemperatureF,Dew PointF,Humidity,Sea Level PressureIn,VisibilityMPH,Wind Direction,Wind SpeedMPH,Gust SpeedMPH,PrecipitationIn,Events,Conditions,WindDirDegrees,DateUTC
12:56 AM,43.0,9.0,25,30.09,10.0,East,8.1,-,N/A,,Clear,100,2012-10-05 07:56:00
1:56 AM,39.9,9.0,28,30.11,10.0,Calm,Calm,-,N/A,,Clear,0,2012-10-05 08:56:00
2:56 AM,37.0,10.0,33,30.12,10.0,Calm,Calm,-,N/A,,Clear,0,2012-10-05 09:56:00
3:56 AM,33.1,8.1,35,30.14,10.0,Calm,Calm,-,N/A,,Clear,0,2012-10-05 10:56:00
4:56 AM,30.0,8.1,40,30.16,10.0,Calm,Calm,-,N/A,,Clear,0,2012-10-05 11:56:00
5:56 AM,32.0,9.0,38,30.16,10.0,NE,3.5,-,N/A,,Clear,50,2012-10-05 12:56:00
6:56 AM,28.0,7.0,41,30.20,10.0,Calm,Calm,-,N/A,,Clear,0,2012-10-05 13:56:00
7:56 AM,36.0,9.0,33,30.23,10.0,ESE,3.5,-,N/A,,Clear,120,2012-10-05 14:56:00
8:56 AM,43.0,9.0,25,30.20,10.0,East,3.5,-,N/A,,Clear,80,2012-10-05 15:56:00
9:56 AM,52.0,10.9,19,30.17,10.0,Calm,Calm,-,N/A,,Clear,0,2012-10-05 16:56:00
10:56 AM,55.9,10.9,17,30.17,10.0,Calm,Calm,-,N/A,,Clear,0,2012-10-05 17:56:00
11:56 AM,63.0,12.0,14,30.12,10.0,Calm,Calm,-,N/A,,Clear,0,2012-10-05 18:56:00
12:56 PM,64.9,10.9,12,30.10,10.0,Variable,5.8,-,N/A,,Clear,0,2012-10-05 19:56:00
1:56 PM,68.0,12.9,12,30.07,10.0,WSW,8.1,-,N/A,,Clear,240,2012-10-05 20:56:00
2:38 PM,69.8,15.8,13,30.13,10.0,WSW,13.8,21.9,N/A,,Clear,240,2012-10-05 21:38:00
2:56 PM,70.0,15.1,12,30.06,10.0,West,13.8,19.6,N/A,,Clear,260,2012-10-05 21:56:00
3:56 PM,68.0,18.0,15,30.07,10.0,West,12.7,-,N/A,,Clear,260,2012-10-05 22:56:00
4:56 PM,66.9,21.0,17,30.08,10.0,West,13.8,23.0,N/A,,Clear,270,2012-10-05 23:56:00
5:56 PM,64.0,14.0,14,30.09,10.0,NW,8.1,-,N/A,,Clear,320,2012-10-06 00:56:00
6:56 PM,59.0,14.0,17,30.12,10.0,NW,10.4,-,N/A,,Clear,320,2012-10-06 01:56:00
7:56 PM,54.0,16.0,22,30.12,10.0,SE,3.5,-,N/A,,Clear,130,2012-10-06 02:56:00
8:56 PM,54.0,16.0,22,30.11,10.0,Calm,Calm,-,N/A,,Clear,0,2012-10-06 03:56:00
9:56 PM,50.0,16.0,26,30.10,10.0,ENE,4.6,-,N/A,,Clear,60,2012-10-06 04:56:00
10:56 PM,42.1,18.0,38,30.12,10.0,Calm,Calm,-,N/A,,Clear,0,2012-10-06 05:56:00
11:56 PM,43.0,16.0,34,30.12,10.0,East,4.6,-,N/A,,Clear,90,2012-10-06 06:56:00